| time (UTC) | temp C | wind direction | speed KPH | gust KPH | rain 1hr cm | rain 24hr cm | rain mn cm | humidity % | barometer mb |
| 20260906230512 | 27 | 227 | 3.2 | 3.2 | 0.00 | 0.00 | 0.00 | 36 | 1018.1 |
| 20260906225011 | 27 | 25 | 0.0 | 3.2 | 0.00 | 0.00 | 0.00 | 35 | 1018.1 |
| 20260906222012 | 28 | 1 | 3.2 | 6.4 | 0.00 | 0.00 | 0.00 | 34 | 1018.0 |
| 20260906220511 | 28 | 0 | 4.8 | 8.0 | 0.00 | 0.00 | 0.00 | 26 | 1018.1 |
| 20260906215012 | 28 | 25 | 6.4 | 8.0 | 0.00 | 0.00 | 0.00 | 35 | 1018.3 |
| 20260906213513 | 28 | 6 | 6.4 | 9.7 | 0.00 | 0.00 | 0.00 | 25 | 1018.4 |
| 20260906212012 | 29 | 343 | 3.2 | 14.5 | 0.00 | 0.00 | 0.00 | 24 | 1018.7 |
| 20260906210511 | 29 | 357 | 6.4 | 16.1 | 0.00 | 0.00 | 0.00 | 26 | 1018.8 |
| 20260906205011 | 30 | 353 | 3.2 | 11.3 | 0.00 | 0.00 | 0.00 | 26 | 1018.9 |
| 20260906203513 | 30 | 337 | 8.0 | 16.1 | 0.00 | 0.00 | 0.00 | 29 | 1019.0 |
| 20260906202011 | 30 | 343 | 3.2 | 8.0 | 0.00 | 0.00 | 0.00 | 26 | 1019.3 |
| 20260906200513 | 28 | 327 | 3.2 | 8.0 | 0.00 | 0.00 | 0.00 | 26 | 1019.6 |
| 20260906195012 | 30 | 337 | 6.4 | 16.1 | 0.00 | 0.00 | 0.00 | 24 | 1019.9 |
| 20260906193512 | 29 | 354 | 4.8 | 8.0 | 0.00 | 0.00 | 0.00 | 29 | 1020.0 |
| 20260906192011 | 28 | 286 | 3.2 | 6.4 | 0.00 | 0.00 | 0.00 | 28 | 1020.1 |
| 20260906190513 | 27 | 310 | 3.2 | 4.8 | 0.00 | 0.00 | 0.00 | 29 | 1020.5 |
| 20260906185012 | 26 | 3 | 1.6 | 4.8 | 0.00 | 0.00 | 0.00 | 36 | 1020.7 |
| 20260906183511 | 26 | 343 | 1.6 | 4.8 | 0.00 | 0.00 | 0.00 | 33 | 1021.1 |
| 20260906180512 | 26 | 37 | 3.2 | 8.0 | 0.00 | 0.00 | 0.00 | 34 | 1021.4 |
| 20260906173512 | 25 | 11 | 3.2 | 8.0 | 0.00 | 0.00 | 0.00 | 33 | 1021.9 |
| 20260906172011 | 23 | 68 | 3.2 | 9.7 | 0.00 | 0.00 | 0.00 | 35 | 1022.2 |
| 20260906170511 | 23 | 0 | 4.8 | 9.7 | 0.00 | 0.00 | 0.00 | 39 | 1022.2 |
| 20260906165012 | 23 | 348 | 3.2 | 6.4 | 0.00 | 0.00 | 0.00 | 44 | 1022.5 |
| 20260906163511 | 22 | 340 | 3.2 | 6.4 | 0.00 | 0.00 | 0.00 | 43 | 1022.6 |
| 20260906162011 | 22 | 0 | 4.8 | 8.0 | 0.00 | 0.00 | 0.00 | 42 | 1022.7 |
| 20260906160511 | 22 | 320 | 1.6 | 4.8 | 0.00 | 0.00 | 0.00 | 36 | 1022.5 |
| 20260906155012 | 21 | 327 | 0.0 | 6.4 | 0.00 | 0.00 | 0.00 | 38 | 1022.7 |
| 20260906153509 | 20 | 314 | 1.6 | 3.2 | 0.00 | 0.00 | 0.00 | 39 | 1022.5 |
| 20260906152010 | 18 | 162 | 0.0 | 3.2 | 0.00 | 0.00 | 0.00 | 51 | 1022.7 |
| 20260906150510 | 19 | 162 | 0.0 | 3.2 | 0.00 | 0.00 | 0.00 | 44 | 1023.0 |
| 20260906145010 | 18 | 162 | 1.6 | 4.8 | 0.00 | 0.00 | 0.00 | 46 | 1023.0 |
| 20260906143509 | 17 | 111 | 3.2 | 4.8 | 0.00 | 0.00 | 0.00 | 48 | 1022.8 |
| 20260906142011 | 16 | 116 | 3.2 | 4.8 | 0.00 | 0.00 | 0.00 | 49 | 1023.0 |
| 20260906140513 | 15 | 241 | 0.0 | 3.2 | 0.00 | 0.00 | 0.00 | 55 | 1022.8 |
| 20260906135012 | 13 | 127 | 1.6 | 3.2 | 0.00 | 0.00 | 0.00 | 65 | 1022.8 |
| 20260906133512 | 11 | 127 | 1.6 | 3.2 | 0.00 | 0.00 | 0.00 | 62 | 1022.7 |
| 20260906132125 | 12 | 195 | 1.6 | 4.8 | 0.00 | 0.00 | 0.00 | 57 | 1022.6 |
| 20260906130625 | 10 | 223 | 1.6 | 3.2 | 0.00 | 0.00 | 0.00 | 68 | 1022.5 |
| 20260906125124 | 10 | 244 | 0.0 | 3.2 | 0.00 | 0.00 | 0.00 | 65 | 1022.2 |
| 20260906123624 | 11 | 243 | 3.2 | 3.2 | 0.00 | 0.00 | 0.00 | 62 | 1022.2 |
| 20260906120623 | 11 | 203 | 0.0 | 3.2 | 0.00 | 0.00 | 0.00 | 66 | 1022.1 |
| 20260906115123 | 11 | 203 | 1.6 | 3.2 | 0.00 | 0.00 | 0.00 | 66 | 1022.0 |
| 20260906113625 | 11 | 113 | 0.0 | 4.8 | 0.00 | 0.00 | 0.00 | 63 | 1021.8 |
| 20260906112124 | 12 | 159 | 1.6 | 4.8 | 0.00 | 0.00 | 0.00 | 61 | 1021.9 |
| 20260906110624 | 12 | 230 | 3.2 | 3.2 | 0.00 | 0.00 | 0.00 | 61 | 1021.8 |
| 20260906103623 | 12 | 223 | 0.0 | 3.2 | 0.00 | 0.00 | 0.00 | 60 | 1021.8 |
| 20260906102124 | 12 | 197 | 1.6 | 3.2 | 0.00 | 0.00 | 0.00 | 64 | 1021.7 |
| 20260906095123 | 14 | 213 | 0.0 | 3.2 | 0.00 | 0.00 | 0.00 | 53 | 1021.5 |
| 20260906093626 | 12 | 182 | 3.2 | 4.8 | 0.00 | 0.00 | 0.00 | 62 | 1021.7 |
| 20260906090625 | 12 | 257 | 0.0 | 3.2 | 0.00 | 0.00 | 0.00 | 62 | 1021.7 |
| 20260906085125 | 12 | 257 | 0.0 | 3.2 | 0.00 | 0.00 | 0.00 | 62 | 1021.5 |
| 20260906083624 | 12 | 333 | 0.0 | 3.2 | 0.00 | 0.00 | 0.00 | 66 | 1021.5 |
| 20260906082123 | 13 | 231 | 0.0 | 3.2 | 0.00 | 0.00 | 0.00 | 55 | 1021.7 |
| 20260906080623 | 14 | 247 | 0.0 | 3.2 | 0.00 | 0.00 | 0.00 | 58 | 1021.7 |
| 20260906075124 | 13 | 180 | 3.2 | 4.8 | 0.00 | 0.00 | 0.00 | 55 | 1021.8 |
| 20260906073623 | 14 | 73 | 0.0 | 4.8 | 0.00 | 0.00 | 0.00 | 58 | 1021.7 |
| 20260906072123 | 13 | 190 | 3.2 | 3.2 | 0.00 | 0.00 | 0.00 | 55 | 1021.7 |
| 20260906070625 | 14 | 207 | 0.0 | 3.2 | 0.00 | 0.00 | 0.00 | 53 | 1021.8 |
| 20260906065124 | 14 | 213 | 0.0 | 1.6 | 0.00 | 0.00 | 0.00 | 55 | 1021.7 |
| 20260906062124 | 16 | 166 | 1.6 | 3.2 | 0.00 | 0.00 | 0.00 | 48 | 1021.7 |
| 20260906060621 | 15 | 207 | 0.0 | 3.2 | 0.00 | 0.00 | 0.00 | 51 | 1021.5 |
| 20260906055122 | 16 | 110 | 1.6 | 4.8 | 0.00 | 0.00 | 0.00 | 48 | 1021.5 |
| 20260906052124 | 16 | 138 | 0.0 | 3.2 | 0.00 | 0.00 | 0.00 | 47 | 1021.4 |
| 20260906045123 | 17 | 247 | 3.2 | 6.4 | 0.00 | 0.00 | 0.00 | 41 | 1021.3 |
| 20260906043624 | 18 | 111 | 3.2 | 14.5 | 0.00 | 0.00 | 0.00 | 37 | 1021.3 |
| 20260906042124 | 20 | 25 | 3.2 | 14.5 | 0.00 | 0.00 | 0.00 | 35 | 1021.4 |
| 20260906040623 | 22 | 254 | 4.8 | 14.5 | 0.00 | 0.00 | 0.00 | 28 | 1020.9 |
| 20260906035122 | 22 | 206 | 8.0 | 16.1 | 0.00 | 0.00 | 0.00 | 28 | 1020.8 |
| 20260906033623 | 21 | 189 | 8.0 | 9.7 | 0.00 | 0.00 | 0.00 | 30 | 1020.8 |
| 20260906032123 | 22 | 180 | 8.0 | 9.7 | 0.00 | 0.00 | 0.00 | 31 | 1020.8 |
| 20260906030622 | 22 | 192 | 8.0 | 9.7 | 0.00 | 0.00 | 0.00 | 30 | 1020.6 |
| 20260906025123 | 21 | 220 | 6.4 | 8.0 | 0.00 | 0.00 | 0.00 | 32 | 1020.3 |
| 20260906023622 | 20 | 183 | 1.6 | 3.2 | 0.00 | 0.00 | 0.00 | 37 | 1020.2 |
| 20260906022122 | 20 | 234 | 1.6 | 3.2 | 0.00 | 0.00 | 0.00 | 42 | 1020.0 |
| 20260906020622 | 22 | 220 | 0.0 | 3.2 | 0.00 | 0.00 | 0.00 | 33 | 1019.7 |
| 20260906013623 | 24 | 223 | 0.0 | 3.2 | 0.00 | 0.00 | 0.00 | 30 | 1019.5 |
| 20260906012123 | 25 | 227 | 0.0 | 3.2 | 0.00 | 0.00 | 0.00 | 27 | 1019.5 |
| 20260906010624 | 26 | 182 | 1.6 | 9.7 | 0.00 | 0.00 | 0.00 | 24 | 1019.5 |
| 20260906005123 | 27 | 230 | 4.8 | 8.0 | 0.00 | 0.00 | 0.00 | 24 | 1019.5 |
| 20260906003624 | 27 | 138 | 3.2 | 6.4 | 0.00 | 0.00 | 0.00 | 33 | 1019.4 |
| 20260906002122 | 27 | 344 | 1.6 | 4.8 | 0.00 | 0.00 | 0.00 | 31 | 1019.3 |
| 20260906000625 | 28 | 11 | 1.6 | 4.8 | 0.00 | 0.00 | 0.00 | 36 | 1019.3 |
| 20260905235124 | 28 | 243 | 0.0 | 6.4 | 0.00 | 0.00 | 0.00 | 34 | 1019.2 |
| 20260905233623 | 26 | 18 | 3.2 | 4.8 | 0.00 | 0.00 | 0.00 | 43 | 1019.2 |
| 20260905232123 | 26 | 13 | 1.6 | 8.0 | 0.00 | 0.00 | 0.00 | 43 | 1019.4 |